Queretaro, Mexico

2:21 PM CST on February 08, 2016 (GMT -0600)
Ing F. Espinoza Gutierrez International

Weather History for MMQT - October, 2012

Change the Weather History Date:

Thursday, October 11, 2012

  Actual Average Record
Temperature  
Mean Temperature 68 °F -  
Max Temperature 82 °F 74 °F 82 °F (2010)
Min Temperature 55 °F 53 °F 42 °F (2010)
Cooling Degree Days 4    
Growing Degree Days 18 (Base 50)    
Moisture  
Dew Point 52 °F    
Average Humidity 59    
Maximum Humidity 88    
Minimum Humidity 22    
Precipitation  
Precipitation 0.00 in - - ()
Sea Level Pressure  
Sea Level Pressure 30.20 in    
Wind  
Wind Speed 8 mph ()    
Max Wind Speed 21 mph    
Max Gust Speed -    
Visibility 8.5 miles    
Events      
Averages and records for this station are not official NWS values.
T = Trace of Precipitation, MM = Missing Value Source: Averaged Metar Reports

Daily Weather History Graph

Daily Weather History Graph

Search for Another Location

Airport or City:

Trip Planner

Search our weather history database for the weather conditions in past years. The results will help you decide how hot, cold, wet, or windy it might be!

Date:

Astronomy

Oct. 11, 2012 Rise Set
Actual Time 7:34 AM CDT 7:19 PM CDT
Civil Twilight 7:12 AM CDT 7:41 PM CDT
Nautical Twilight 6:46 AM CDT 8:07 PM CDT
Astronomical Twilight 6:21 AM CDT 8:33 PM CDT
Moon 3:45 AM CDT (10/11) 4:31 PM CDT (10/11)
Length of Visible Light 12h 29m
Length of Day
11h 44m
Waning Crescent, 18% of the Moon is Illuminated
Oct 11
Waning Crescent
Oct 15
New
Oct 21
First Quarter
Oct 29
Full
Nov 6
Last Quarter

Hourly Weather History & Observations

Time (CDT) Temp. Dew Point Humidity Pressure Visibility Wind Dir Wind Speed Gust Speed Precip Events Conditions
12:45 AM 63 °F 54 °F 66% 29.79 in 6 mi East 6.7 mph - -   Scattered Clouds
12:45 AM 59.0 °F 50.0 °F 72% 30.34 in 7.0 mi ENE 4.6 mph - N/A   Scattered Clouds
1:45 AM 59.0 °F 50.0 °F 72% 30.36 in 7.0 mi ENE 4.6 mph - N/A   Scattered Clouds
2:45 AM 60.8 °F 50.0 °F 68% 30.34 in 7.0 mi East 8.1 mph - N/A   Scattered Clouds
3:40 AM 61 °F 55 °F 75% 29.86 in 6 mi East 4.5 mph - -   Scattered Clouds
3:45 AM 60.8 °F 50.0 °F 68% 30.34 in 7.0 mi ENE 10.4 mph - N/A   Scattered Clouds
4:45 AM 60.8 °F 50.0 °F 68% 30.32 in 7.0 mi ENE 8.1 mph - N/A   Scattered Clouds
5:45 AM 60.8 °F 50.0 °F 68% 30.32 in 7.0 mi ENE 11.5 mph - N/A   Scattered Clouds
6:40 AM 61 °F 54 °F 73% 29.90 in 6 mi East 8.9 mph - -   Scattered Clouds
6:45 AM 60.8 °F 55.4 °F 82% 30.32 in 7.0 mi ENE 10.4 mph - N/A   Scattered Clouds
7:40 AM 55.4 °F 51.8 °F 88% 30.33 in 6.0 mi SE 5.8 mph - N/A   Scattered Clouds
8:45 AM 62.6 °F 55.4 °F 77% 30.36 in 5.0 mi East 6.9 mph - N/A   Scattered Clouds
9:40 AM 63 °F 53 °F 60% 29.97 in 16 mi East 11.2 mph - -   Scattered Clouds
9:45 AM 66.2 °F 55.4 °F 68% 30.37 in 6.0 mi NE 5.8 mph - N/A   Scattered Clouds
10:45 AM 69.8 °F 53.6 °F 56% 30.39 in 7.0 mi East 15.0 mph - N/A   Scattered Clouds
11:45 AM 71.6 °F 51.8 °F 50% 30.38 in 8.0 mi East 13.8 mph - N/A   Scattered Clouds
12:45 PM 73.4 °F 53.6 °F 50% 30.36 in 10.0 mi East 16.1 mph - N/A   Scattered Clouds
12:50 PM 76 °F 51 °F 31% 29.92 in 16 mi East 8.9 mph - -   Partly Cloudy
1:45 PM 77.0 °F 53.6 °F 44% 30.33 in 10.0 mi ENE 11.5 mph - N/A   Scattered Clouds
2:45 PM 77.0 °F 53.6 °F 44% 30.27 in 10.0 mi East 13.8 mph - N/A   Scattered Clouds
3:45 PM 78.8 °F 55.4 °F 44% 30.26 in 10.0 mi ENE 13.8 mph - N/A   Mostly Cloudy
3:55 PM 82 °F 49 °F 22% 29.80 in 16 mi East 6.7 mph - -   Scattered Clouds
4:45 PM 77.0 °F 53.6 °F 44% 30.24 in 10.0 mi NE 13.8 mph - N/A   Mostly Cloudy
5:45 PM 75.2 °F 53.6 °F 47% 30.23 in 10.0 mi NNE 17.3 mph - N/A   Mostly Cloudy
6:45 PM 71.6 °F 53.6 °F 53% 30.24 in 7.0 mi NNE 17.3 mph - N/A   Mostly Cloudy
6:55 PM 75 °F 52 °F 33% 29.70 in 12 mi NE 11.2 mph - -   Scattered Clouds
7:45 PM 68.0 °F 50.0 °F 52% 30.26 in 7.0 mi NNE 20.7 mph - N/A   Mostly Cloudy
8:45 PM 64.4 °F 46.4 °F 52% 30.26 in 7.0 mi NE 13.8 mph - N/A   Scattered Clouds
9:45 PM 62.6 °F 48.2 °F 59% 30.30 in 7.0 mi NE 9.2 mph - N/A   Scattered Clouds
9:50 PM 64 °F 54 °F 61% 29.74 in 12 mi NE 8.9 mph - -   Scattered Clouds
10:50 PM 60.8 °F 48.2 °F 63% 30.34 in 7.0 mi NE 9.2 mph - N/A   Scattered Clouds
11:50 PM 59.0 °F 50.0 °F 72% 30.38 in 7.0 mi East 4.6 mph - N/A   Scattered Clouds